EST,Max TemperatureF,Mean TemperatureF,Min TemperatureF,Max Dew PointF,MeanDew PointF,Min DewpointF,Max Humidity, Mean Humidity, Min Humidity, Max Sea Level PressureIn, Mean Sea Level PressureIn, Min Sea Level PressureIn, Max VisibilityMiles, Mean VisibilityMiles, Min VisibilityMiles, Max Wind SpeedMPH, Mean Wind SpeedMPH, Max Gust SpeedMPH,PrecipitationIn, CloudCover, Events, WindDirDegrees
2013-2-1,35,25,15,33,13,1,97,66,52,30.30,30.16,29.86,10,9,1,23,11,32,0.00,3,Snow,305
2013-2-2,30,23,16,30,21,12,100,85,51,30.28,30.14,30.01,10,6,1,16,2,21,0.22,6,Snow,270
2013-2-3,36,32,30,33,30,22,100,91,71,30.08,29.95,29.88,10,7,1,17,8,24,0.04,8,Snow,283
2013-2-4,38,26,16,29,23,16,98,75,53,30.09,30.01,29.93,10,10,7,6,2,,0.00,5,,317
2013-2-5,46,40,33,40,34,28,100,83,71,29.98,29.93,29.90,10,10,5,9,2,,0.00,6,,268
2013-2-6,52,42,31,36,32,26,100,71,38,30.21,30.13,29.98,10,10,5,8,3,,0.00,0,,277
2013-2-7,51,43,35,40,34,28,89,67,57,30.20,30.11,29.96,10,10,10,17,10,17,0.00,4,,94
2013-2-8,50,42,34,48,36,28,100,85,58,30.20,29.99,29.89,10,9,2,20,9,31,0.04,7,Rain,7
2013-2-9,49,39,29,27,23,19,77,58,31,30.32,30.26,30.19,10,10,10,10,5,21,0.00,1,,326
2013-2-10,61,46,32,45,27,17,96,51,19,30.28,30.18,30.02,10,10,7,16,8,21,0.19,2,Rain,119
2013-2-11,55,50,44,53,46,34,100,88,68,30.06,30.01,29.97,10,10,3,17,4,25,0.05,5,Rain,268
2013-2-12,52,42,32,35,29,26,83,60,39,30.15,30.05,29.89,10,10,10,10,4,12,0.00,1,,289
2013-2-13,46,41,36,46,40,34,100,92,73,29.90,29.74,29.61,10,9,2,18,6,30,0.32,8,Rain,12
2013-2-14,48,39,30,34,31,28,94,78,53,30.03,29.98,29.90,10,10,7,12,5,18,0.00,3,,278
2013-2-15,54,41,29,41,34,29,100,86,48,30.06,30.02,29.94,10,9,2,18,3,25,0.05,3,Rain-Snow,295
2013-2-16,33,30,25,33,24,14,100,77,56,30.02,29.93,29.88,10,9,2,17,5,26,0.02,6,Snow,336
2013-2-17,34,27,20,15,11,8,75,53,35,30.19,30.08,29.95,10,10,2,21,11,32,0.00,4,Snow,313
2013-2-18,54,37,20,32,21,14,80,55,38,30.27,30.18,30.01,10,10,10,13,3,20,0.00,0,,225
2013-2-19,47,40,34,42,30,16,100,68,36,30.04,29.94,29.85,10,9,4,25,8,31,0.09,4,Rain,274
2013-2-20,41,34,26,19,15,12,69,49,31,30.16,30.10,30.04,10,10,10,18,9,24,0.00,0,,292
2013-2-21,50,35,20,36,19,15,85,55,27,30.21,30.13,30.05,10,10,7,12,1,,0.08,1,Rain,93
2013-2-22,57,48,40,47,42,37,98,83,63,30.13,30.05,30.00,10,10,7,15,8,18,0.15,5,Rain,98
2013-2-23,57,48,39,49,43,38,100,89,65,30.02,29.91,29.82,10,9,7,12,5,,0.03,4,Rain,189
2013-2-24,53,44,34,47,30,22,99,62,34,30.06,29.97,29.85,10,10,7,12,6,20,0.00,2,,325
2013-2-25,53,42,30,32,27,24,79,61,42,30.06,30.00,29.93,10,10,10,18,7,23,0.00,0,,92
2013-2-26,52,44,36,44,37,27,97,79,64,29.94,29.67,29.48,10,10,3,25,16,37,0.12,7,Rain-Snow,102
2013-2-27,43,40,37,37,35,32,95,82,70,29.78,29.72,29.62,10,10,7,15,11,28,0.02,8,Rain,276
2013-2-28,36,34,32,33,30,26,98,83,68,29.90,29.79,29.71,10,9,2,15,10,21,0.02,8,Snow,291